Weather History for Everett, WA

Change the Weather History Date:

Thursday, March 14, 2013

  Actual Average Record
Temperature  
Mean Temperature 48 °F -  
Max Temperature 51 °F 53 °F 65 °F (1992)
Min Temperature 46 °F 37 °F 28 °F (1956)
Degree Days  
Heating Degree Days 17    
Moisture  
Dew Point 45 °F    
Average Humidity 85    
Maximum Humidity 93    
Minimum Humidity 71    
Precipitation  
Precipitation 0.01 in - - ()
Sea Level Pressure  
Sea Level Pressure 30.07 in    
Wind  
Wind Speed 12 mph (SSE)    
Max Wind Speed 24 mph    
Max Gust Speed 31 mph    
Visibility 9 miles    
Events Rain    
Averages and records for this station are not official NWS values.
T = Trace of Precipitation, MM = Missing Value Source: NWS Daily Summary

Daily Weather History Graph

Daily Weather History Graph

Search for Another Location

Airport:

Trip Planner

Search our weather history database for the weather conditions in past years. The results will help you decide how hot, cold, wet, or windy it might be!

Date:

Astronomy

Mar. 14, 2013 Rise Set
Actual Time 7:23 AM PDT 7:13 PM PDT
Civil Twilight 6:52 AM PDT 7:44 PM PDT
Nautical Twilight 6:16 AM PDT 8:20 PM PDT
Astronomical Twilight 5:39 AM PDT 8:57 PM PDT
Moon 8:24 AM PDT (3/14) 10:53 PM PDT (3/14)
Length of Visible Light 12h 51m
Length of Day
11h 50m
Waxing Crescent, 9% of the Moon is Illuminated
Mar 14
Waxing Crescent
Mar 19
First Quarter
Mar 27
Full
Apr 2
Last Quarter
Apr 10
New

Hourly Weather History & Observations

Time (PDT) Temp. Windchill Dew Point Humidity Pressure Visibility Wind Dir Wind Speed Gust Speed Precip Events Conditions
12:53 AM 50.0 °F - 48.0 °F 93% 30.09 in 10.0 mi SSE 8.1 mph - N/A   Scattered Clouds
1:53 AM 50.0 °F - 46.9 °F 89% 30.08 in 10.0 mi South 9.2 mph - N/A   Mostly Cloudy
2:53 AM 50.0 °F - 46.9 °F 89% 30.07 in 10.0 mi SSE 8.1 mph - N/A   Mostly Cloudy
3:53 AM 50.0 °F - 46.0 °F 86% 30.05 in 10.0 mi SSE 12.7 mph - N/A   Scattered Clouds
4:53 AM 50.0 °F - 46.0 °F 86% 30.04 in 10.0 mi SSE 11.5 mph - N/A   Mostly Cloudy
5:53 AM 48.9 °F - 46.0 °F 90% 30.05 in 10.0 mi South 6.9 mph - N/A   Overcast
6:53 AM 50.0 °F - 45.0 °F 83% 30.03 in 10.0 mi SSE 12.7 mph - N/A   Scattered Clouds
7:53 AM 48.9 °F - 45.0 °F 86% 30.04 in 10.0 mi SSE 15.0 mph 20.7 mph N/A   Clear
8:53 AM 50.0 °F - 44.1 °F 80% 30.05 in 10.0 mi SSE 18.4 mph - N/A   Clear
9:53 AM 50.0 °F - 45.0 °F 83% 30.07 in 10.0 mi SSE 16.1 mph - N/A   Scattered Clouds
10:53 AM 50.0 °F - 45.0 °F 83% 30.07 in 10.0 mi South 16.1 mph - N/A   Mostly Cloudy
11:53 AM 50.0 °F - 45.0 °F 83% 30.07 in 10.0 mi South 16.1 mph - N/A   Overcast
12:53 PM 50.0 °F - 45.0 °F 83% 30.07 in 10.0 mi South 13.8 mph - N/A   Overcast
1:05 PM 50.0 °F - 44.6 °F 82% 30.06 in 10.0 mi SSE 12.7 mph 19.6 mph N/A   Overcast
1:53 PM 50.0 °F - 46.0 °F 86% 30.06 in 8.0 mi SSE 10.4 mph - 0.00 in Rain Light Rain
2:31 PM 50.0 °F - 46.4 °F 87% 30.05 in 10.0 mi South 8.1 mph - 0.01 in   Overcast
2:53 PM 50.0 °F - 46.0 °F 86% 30.06 in 9.0 mi SSW 8.1 mph - 0.01 in   Overcast
3:19 PM 50.0 °F - 44.6 °F 82% 30.05 in 10.0 mi South 11.5 mph - N/A   Overcast
3:53 PM 50.0 °F - 43.0 °F 77% 30.06 in 10.0 mi SSE 12.7 mph - N/A   Overcast
4:00 PM 50.0 °F - 42.8 °F 76% 30.05 in 10.0 mi SSE 12.7 mph - N/A   Overcast
4:53 PM 50.0 °F - 43.0 °F 77% 30.05 in 10.0 mi South 16.1 mph 27.6 mph N/A   Overcast
5:53 PM 50.0 °F - 41.0 °F 71% 30.05 in 10.0 mi South 17.3 mph 25.3 mph N/A   Overcast
6:53 PM 50.0 °F - 43.0 °F 77% 30.07 in 10.0 mi South 24.2 mph 31.1 mph 0.00 in Rain Light Rain
7:53 PM 48.0 °F - 43.0 °F 83% 30.08 in 10.0 mi South 16.1 mph 27.6 mph 0.00 in   Scattered Clouds
8:53 PM 48.0 °F - 43.0 °F 83% 30.09 in 10.0 mi South 15.0 mph 25.3 mph N/A   Overcast
9:16 PM 48.2 °F - 42.8 °F 82% 30.09 in 10.0 mi SSE 15.0 mph 23.0 mph N/A   Overcast
9:53 PM 48.0 °F - 44.1 °F 86% 30.11 in 8.0 mi SSE 16.1 mph 23.0 mph N/A   Overcast
10:00 PM 46.4 °F 39.8 °F 44.6 °F 93% 30.11 in 5.0 mi SSE 16.1 mph - N/A   Overcast
10:09 PM 46.4 °F 40.4 °F 44.6 °F 93% 30.11 in 5.0 mi SSE 13.8 mph 23.0 mph N/A   Overcast
10:21 PM 46.4 °F 40.7 °F 44.6 °F 93% 30.12 in 4.0 mi SSE 12.7 mph - N/A   Overcast
10:53 PM 46.9 °F - 45.0 °F 93% 30.14 in 6.0 mi SSE 13.8 mph - N/A   Overcast
11:53 PM 46.9 °F - 45.0 °F 93% 30.15 in 10.0 mi South 12.7 mph - N/A   Overcast